GFSNIL_con_mucape_057.txt.gz
CAPE
1121 1198 544 821 301 350 1251 1810 1526 1876 2355 1958 1801 1766 1976 1551 1991 1675 1273 1867 1086 54
644 1357 1558 388 849 1345 609 1270 1663 1702 1720 2416 1941 1651 1561 2493 2014 2271 1808 1365 1720 931
1540 813 1519 1629 533 537 935 1414 1133 1856 1663 2204 2448 2124 1820 2102 2611 1997 2200 1778 1568 1594
2085 1768 1063 1608 1865 752 708 1113 2862 2329 2146 2074 2097 2557 2323 1792 2382 2612 2327 2060 1814 1519
1983 2459 2059 1156 1312 1932 956 1327 1528 2747 2607 2365 2215 2083 2418 2413 2287 2234 2493 2350 1966 1805
2098 2262 2620 2357 1391 1373 1813 1334 1877 1549 2587 2423 2291 2305 1966 2323 2632 2396 2426 2438 2289 1891
2605 2516 2494 2699 2522 1660 1777 1840 2243 2469 1939 2579 2268 2141 2294 2448 2405 2433 2182 2526 2669 2448
2547 2691 2637 2589 2742 2603 1813 2314 1932 2058 2835 2552 2588 2278 2181 2221 2471 2638 2689 2401 2528 2719
2784 2795 2768 2841 2809 2912 2805 2122 2310 2736 2160 2772 2810 2753 2460 2360 2410 2538 2696 2872 2705 2607
2724 2936 2960 3044 3060 3036 3007 3015 2780 2450 2902 2802 2877 2926 2851 2802 2474 2469 2696 2824 2854 2846
2557 2937 2980 2978 3107 3056 3088 3093 3138 3102 2909 3132 3153 3152 3107 3036 3020 2760 2541 2758 3066 3017
2649 2959 3057 3051 3131 3233 3200 3197 3141 3247 3261 3230 3313 3315 3408 3347 3278 3134 2950 2783 2737 2950
2838 3042 3064 3267 3246 3466 3413 3352 3370 3304 3383 3368 3326 3449 3499 3549 3419 3159 3074 2899 2792 2792
3327 3247 3354 3284 3437 3501 3678 3684 3577 3567 3490 3520 3660 3607 3650 3679 3613 3303 3030 2784 2590 2532

GFSNIL_con_mucape_060.txt.gz
CAPE
613 564 492 340 251 24 465 1062 1120 1333 1842 1715 1590 1447 1202 1255 1126 1087 847 694 670 10
649 504 353 415 243 52 157 1135 1342 1328 1593 1892 1834 1614 1451 1411 1351 1500 1340 649 1112 907
561 898 1052 453 359 449 235 495 1255 1341 1366 1660 1774 1755 1536 1733 1590 1579 1695 1523 1132 1100
582 332 564 1483 1207 337 404 842 925 1152 1390 1437 1830 1844 1689 1392 1677 2050 1837 1868 1709 1356
939 877 462 412 1323 1563 870 237 393 1816 1845 1464 1570 1948 1819 1617 1482 1998 2186 2013 1948 1884
1172 1337 1286 826 548 1337 1586 1148 416 1349 2162 2221 1953 1720 1969 1990 1922 1832 1858 2144 2056 2035
1141 1624 1944 1682 1209 721 1097 1495 1357 812 1632 2247 2274 1944 1694 1798 2057 1976 1823 1725 1811 1880
1449 1327 1756 2165 1958 1605 1165 975 1184 1168 1207 1748 2041 2153 2005 1736 1646 1742 1959 2009 2032 2209
1556 1907 1738 1861 2128 2238 1987 1721 1341 1341 1459 1840 1914 2071 2142 2039 1897 1810 1703 1741 1808 1811
1695 1875 2224 2170 2151 2252 2361 2161 1893 1772 1591 1523 2148 2384 2322 2256 2135 1983 1976 2038 2085 2135
1929 2158 2282 2382 2358 2364 2428 2529 2372 2082 1989 2276 1990 2081 2532 2609 2530 2353 2244 2170 2189 2231
2077 2377 2523 2616 2621 2630 2694 2687 2720 2704 2597 2413 2354 2595 2559 2651 2741 2703 2660 2585 2494 2447
1681 2351 2584 2686 2744 2856 2848 2881 2890 2894 2939 2969 2888 2773 2837 2991 3010 2857 2722 2647 2680 2732
1609 1746 2385 2660 2750 2746 2941 2924 2930 2976 2981 2998 3062 3072 3055 3123 3225 3072 2958 2861 2780 2733

GFSNIL_con_mucape_063.txt.gz
CAPE
128 88 74 82 254 276 200 168 427 841 1558 1591 1464 1387 1130 1143 809 1037 1070 877 812 188
230 178 127 113 126 66 147 154 392 653 1008 1337 1423 1525 1446 1349 932 1087 989 1070 884 709
271 267 236 215 236 131 204 140 505 781 967 1356 1431 1564 1631 1595 1328 1102 1159 1283 1193 628
298 335 325 348 337 349 275 203 52 697 1032 1219 1444 1500 1571 1623 1565 1312 1343 1295 1384 1465
338 397 540 634 348 307 234 264 304 190 887 1201 1273 1448 1473 1445 1502 1514 1514 1551 1613 1704
355 312 314 426 865 890 722 578 359 516 948 1090 1203 1305 1510 1504 1430 1453 1460 1348 1494 1712
570 585 542 365 293 505 894 890 1051 820 509 1124 1397 1703 1769 1630 1655 1533 1430 1451 1590 1628
453 650 767 813 719 517 483 759 746 761 777 899 1274 1443 1780 1975 1755 1691 1558 1569 1644 1756
587 679 960 1219 1230 1059 842 680 771 799 739 818 1061 1223 1687 1740 1740 1790 1600 1596 1690 1751
918 897 929 1280 1664 1749 1465 1261 1094 944 879 856 925 1139 1353 1763 1586 1477 1534 1539 1520 1553
1127 1262 1384 1273 1421 1680 1946 1829 1617 1438 1362 1311 1183 1400 1445 1470 1600 1571 1678 1730 1751 1777
1235 1272 1445 1834 1764 1770 1833 2089 2121 1919 1777 1722 1715 1628 1541 1870 1892 1846 1888 1933 2000 2057
1139 1374 1627 1752 1999 2040 2121 2131 2236 2383 2331 2199 2118 2080 2124 2015 1955 1930 2057 2127 2261 2353
1510 1605 1810 2048 2121 2297 2360 2443 2530 2581 2603 2633 2667 2688 2686 2639 2546 2525 2559 2621 2661 2659

GFSNIL_con_mucape_069.txt.gz
CAPE
1492 671 735 1099 718 524 413 438 1050 1587 1780 2152 2302 2476 2537 2264 2139 2190 2203 2213 2075 1522
1275 1207 934 1469 1207 644 987 324 742 1131 1387 1670 1979 2401 2584 2326 2431 2271 2345 2143 2375 2312
1222 1313 1289 1206 1313 1360 1009 810 604 1062 1183 1391 1668 1969 2361 2161 2464 2612 2434 2235 2194 2377
1282 1034 1099 1016 1017 1409 1201 1072 1139 1309 1403 1521 1624 1862 2165 2274 2177 2465 2658 2710 2608 2574
1355 1422 984 1220 984 941 1224 1109 1126 1164 1320 1386 1505 1732 1994 1982 1873 2368 2545 2678 2804 2812
1379 1305 1547 1507 1457 1202 1210 1304 1038 1181 1319 1589 1472 1697 1913 2031 2132 2463 2578 2653 2784 2781
1454 1501 1485 1591 1653 1269 1499 1508 1298 1453 1639 1455 1271 1308 1354 1561 2067 2297 2333 2469 2584 2650
1565 1594 1711 1755 1674 1385 1427 1570 1815 1558 1430 1418 1297 966 1605 1588 1792 2225 2393 2490 2628 2670
1717 1757 1768 1841 1911 1825 1678 1377 1721 1605 1531 1513 1092 497 435 1056 1665 1865 2213 2279 2427 2631
1833 1863 1865 1839 1822 2026 2182 1804 1958 1757 1624 1743 1719 764 364 348 1293 2010 2401 2774 2635 2002
1800 1856 1913 1899 1921 1886 1434 1810 2100 1895 1940 2012 1995 1092 592 322 975 2056 2520 2603 2654 2799
1602 1783 2003 2032 2021 1912 1888 1877 1908 1871 2070 2368 2301 1097 715 470 810 1115 2257 2470 2707 2830
1759 1857 1953 2053 2172 2326 2349 2159 1837 1869 2015 1649 2299 1464 973 707 1175 1816 1578 2486 2796 1824
2010 2075 2207 2283 2407 2487 2489 2586 2719 2767 2736 2484 2229 2200 1340 1053 1509 1751 2053 2144 2302 2427

GFSNIL_con_mucape_072.txt.gz
CAPE
2357 1172 1305 1514 1019 931 670 487 686 1603 1902 2070 1974 2357 2487 2482 1951 2220 1946 2267 2207 1166
2484 2167 1318 2585 1668 1185 1301 786 910 1055 1510 1547 1808 2123 2461 2229 2484 2478 2745 2565 2670 2592
1703 1991 2054 1576 1910 1877 1386 1365 1085 1124 970 1218 1724 1987 2412 1920 2263 2785 2558 2214 2271 2671
1799 1611 1659 1278 1521 1834 1855 1722 1880 1453 1340 1058 1507 1988 2448 2316 1901 2307 2897 2930 2966 3137
2147 2405 1427 1665 1560 1718 1937 2059 2073 1955 1831 1490 1379 1916 2352 2372 1695 2310 2726 2959 3202 3328
1823 1788 2275 2170 1914 1815 2012 2049 2091 2066 2030 1854 1386 1421 1976 2214 2217 2188 2475 2910 3169 3328
2517 2565 2069 2614 2679 2098 2405 2162 2217 2362 2194 2021 1765 1301 1296 1521 2070 2205 2237 2638 3027 3263
2901 2908 3145 3098 2974 2511 2464 2190 2325 2325 2260 2106 1860 1261 1666 1259 1256 1838 2277 2362 2488 2758
3114 3192 3178 3224 3123 3035 2556 2706 2555 2479 2387 2191 1713 750 489 823 1258 1510 2218 2152 2362 2523
3216 3344 3410 2892 3247 3358 3132 2871 2940 2599 2589 2692 2597 1302 653 461 1235 1387 2236 2938 2747 1823
3341 3348 3329 3338 3359 3665 3003 3431 3464 2708 2828 2736 2766 1632 1221 742 1309 2204 2612 2872 3186 3444
3077 3366 3231 3285 3402 3028 3216 3142 3021 2981 3205 3347 3130 1829 1465 1163 1455 1457 2512 2618 3087 3509
3141 3490 3458 3540 3559 3301 2760 2541 2367 2480 2924 2429 3395 2437 1794 1261 1635 2045 1547 2890 3627 2043
2878 3488 3562 3710 3660 3611 3271 3199 3506 3213 3223 3100 2787 2984 1976 1599 2075 1577 1662 1706 1725 2104

GFSNIL_con_mucape_075.txt.gz
CAPE
2703 1016 772 2197 1001 531 492 615 3700 2454 2102 2017 2355 1857 2797 2330 2008 3115 2126 2250 3005 1777
2343 2019 1146 2600 3065 1469 2159 709 842 1072 2149 2102 1978 2591 3712 2084 2326 2452 2543 2492 2962 2352
2351 2488 2621 3122 3505 2760 2679 2437 1306 1533 1327 1725 2301 2604 3631 2671 3396 2938 2232 2379 4032 3714
2397 2169 2538 2402 3030 2885 3047 3138 2998 2304 1969 1722 2028 2624 3737 3704 2863 3564 3757 3179 3000 3311
2844 2652 2636 2527 2406 2947 3264 3652 3565 3363 2950 2422 2038 2962 3193 2417 2255 2272 2380 2627 3865 3382
2866 2952 2813 2916 2821 2778 3305 3592 3183 3475 3701 3275 2529 2699 3008 3373 2935 2185 2542 3045 3660 3648
3060 3145 2900 3083 3252 3228 3558 3764 3700 3950 3980 3685 3195 2593 2226 2693 3318 3345 2532 2959 3337 3440
3219 3273 3375 3141 3389 3516 3648 3664 3941 4051 3944 3606 2999 2089 2688 2544 2889 3518 3254 2997 2986 3334
3254 3566 3474 3371 3484 3728 3754 3821 4066 4024 3973 3754 2285 1173 992 1857 2325 2690 3047 3310 3666 3786
3454 3697 3681 3603 3860 3985 4035 3970 4077 4111 4069 4021 3999 1449 842 594 2195 2595 2910 3257 3513 3016
3560 3726 3929 4067 4108 4147 4161 4107 4192 4247 4233 4218 3874 2313 1522 950 2003 2247 2710 3111 3587 3820
3567 3849 4099 4081 4169 4251 4291 4288 4286 4394 4383 4402 4184 2331 1930 1556 1901 2121 2954 3352 3502 3502
3772 4027 4173 4222 4231 4316 4337 4188 3263 3809 4306 3874 4410 3301 2182 1648 1917 2363 1948 3031 3507 2495
4084 4201 4321 4456 4482 4481 4298 3631 4252 4209 4348 4414 4097 4320 2816 2211 2767 2071 2018 1881 1725 1986